Vorticity
nan nan nan nan nan nan nan nan nan nan nan nan nan nan nan nan nan nan nan nan nan nan nan nan nan nan nan nan nan nan nan nan nan nan nan nan nan nan nan nan nan nan nan nan nan nan nan nan nan nan nan nan nan nan nan nan nan nan nan nan nan nan nan nan nan nan nan nan nan nan nan nan nan nan nan nan nan nan nan nan nan nan nan nan nan nan nan nan nan nan nan nan nan nan nan nan nan nan nan nan nan nan nan
nan 8 9 9 9 9 9 10 10 9 8 6 6 5 5 7 8 9 12 12 12 10 8 6 6 6 5 5 6 6 7 7 7 7 7 7 8 9 11 11 10 9 7 5 4 5 8 10 10 8 7 7 6 6 5 2 2 4 7 7 8 12 18 21 18 12 6 5 5 4 3 3 2 2 3 3 4 3 3 4 4 5 6 5 6 5 6 7 6 6 7 7 8 7 7 8 8 7 7 8 8 8 nan
nan 8 9 9 9 10 10 11 10 10 10 8 7 6 5 5 5 6 9 12 14 13 10 7 4 3 3 4 6 7 6 5 6 6 6 7 8 9 10 10 9 8 6 5 5 6 11 11 9 7 8 7 6 6 4 3 4 5 7 6 5 8 14 18 17 12 5 4 4 4 3 3 2 2 3 4 4 4 3 2 3 4 5 5 6 6 6 6 6 5 5 6 8 7 7 7 6 4 4 9 12 13 nan
nan 7 9 9 10 10 11 11 11 11 11 10 9 8 6 5 5 5 7 10 14 15 13 9 6 4 4 6 7 9 8 6 5 5 6 6 7 8 8 8 8 7 6 6 7 9 13 11 7 5 6 7 8 8 8 8 7 7 6 5 3 1 8 18 18 13 6 4 3 3 4 3 3 3 3 4 5 5 3 2 2 3 4 5 5 5 5 5 5 5 4 5 5 6 7 7 6 3 -0 3 9 13 nan
nan 6 8 9 9 9 10 11 11 11 11 11 10 9 8 8 7 6 7 9 12 14 14 12 10 8 7 8 10 11 12 9 7 6 6 6 6 6 6 7 7 7 7 8 9 8 8 8 6 6 6 8 9 10 13 13 11 8 6 4 1 -1 4 15 19 15 9 4 2 2 4 3 3 3 3 4 5 5 5 3 3 3 3 4 5 5 5 4 4 4 4 4 5 5 7 8 8 6 1 1 4 8 nan
nan 5 6 8 8 9 10 10 11 11 11 10 10 9 9 8 8 8 8 9 10 12 12 12 10 9 10 10 11 13 14 12 9 7 5 4 4 5 4 5 7 8 10 10 10 8 5 6 6 6 7 8 7 8 13 14 12 8 5 2 -2 -3 3 12 18 18 12 5 3 2 2 2 3 4 3 4 4 5 6 5 4 3 3 4 4 4 4 4 4 4 4 4 5 5 6 9 10 9 6 1 2 3 nan
nan 4 5 6 7 8 8 9 10 10 10 10 9 8 8 8 9 9 10 10 10 11 12 11 9 9 9 8 9 10 12 14 12 9 6 5 4 5 5 7 8 10 11 12 11 9 5 4 5 6 6 7 7 7 8 9 8 6 5 2 -1 -4 1 9 15 18 13 7 4 3 1 2 4 4 4 3 4 4 5 5 6 5 4 4 4 4 4 4 4 4 4 4 5 4 6 8 9 10 9 4 2 2 nan
nan 4 5 6 6 7 7 8 9 10 10 9 9 8 7 7 8 9 11 12 12 12 12 11 10 8 8 6 6 5 7 11 12 12 10 8 7 7 7 7 7 9 10 11 11 10 5 3 5 7 6 7 8 6 3 4 4 6 4 4 4 2 1 4 9 14 14 9 7 4 2 2 3 4 4 4 4 4 4 5 6 6 6 5 4 4 4 4 4 4 4 4 5 5 6 7 8 10 10 6 3 2 nan
nan 4 5 6 6 6 6 7 8 9 10 9 9 8 6 6 7 8 12 13 14 13 13 12 11 10 9 7 6 4 5 7 10 11 11 10 9 8 7 7 7 7 9 10 10 11 6 4 5 6 7 6 7 5 4 3 6 7 8 9 6 3 0 1 4 10 12 11 9 6 4 3 2 3 4 4 4 4 4 4 5 6 7 6 5 4 4 4 4 4 4 5 5 5 5 6 7 9 9 9 7 5 nan
nan 3 5 7 7 7 6 6 7 8 9 10 9 8 7 6 6 7 10 13 14 14 13 12 12 11 11 10 9 7 5 6 7 8 9 10 10 9 8 7 7 7 8 9 9 11 7 4 6 5 7 7 8 8 7 5 8 7 11 11 6 5 2 -0 1 4 8 10 10 9 8 4 3 3 4 4 4 4 4 4 4 5 6 6 7 6 4 4 4 4 5 6 6 6 5 5 6 7 8 10 11 10 nan
nan 3 6 8 8 7 6 6 6 7 8 9 10 9 8 7 6 7 8 11 13 14 13 11 11 10 9 9 10 10 9 7 7 8 8 9 10 10 9 7 7 7 8 8 8 9 8 4 4 4 6 7 8 10 8 9 12 9 11 11 10 10 5 1 -1 0 4 8 9 9 10 7 5 4 3 4 4 5 5 4 4 4 5 6 7 7 6 4 4 4 5 7 7 6 6 5 5 6 7 9 10 13 nan
nan 4 7 9 8 7 6 6 6 6 7 9 10 9 9 8 7 7 7 10 12 13 13 11 10 9 7 6 8 10 10 8 8 8 9 9 10 10 9 8 7 7 7 7 7 8 9 6 5 4 5 6 8 9 8 11 14 13 15 15 13 11 9 7 4 2 2 5 7 9 10 9 7 5 4 4 4 5 5 5 5 4 5 5 7 8 8 6 5 5 6 7 8 7 6 5 4 5 5 6 7 11 nan
nan 6 8 9 7 7 6 6 6 6 7 8 9 9 9 9 8 8 8 10 12 13 12 11 9 8 6 5 5 7 9 8 8 8 8 9 10 9 9 8 7 7 7 6 7 8 9 8 8 6 4 6 8 7 7 9 11 13 19 20 13 12 12 12 10 7 5 5 5 6 8 11 10 8 6 5 4 4 5 6 6 6 5 5 5 6 8 8 7 7 6 7 8 7 5 4 4 4 4 5 6 7 nan
nan 7 7 7 7 7 7 6 6 6 7 7 7 8 8 9 10 10 10 10 12 13 13 12 10 9 8 7 6 6 6 7 7 7 8 8 9 9 9 8 7 7 6 6 6 7 7 8 8 8 6 6 8 7 6 7 9 13 17 17 12 11 12 12 12 11 9 5 4 4 7 10 11 10 9 7 5 5 5 6 7 7 6 5 4 3 5 7 7 7 7 8 7 7 6 5 4 4 4 4 5 5 nan
nan 5 5 6 7 7 7 7 7 7 7 7 7 7 7 9 11 12 11 10 11 12 13 13 13 13 12 9 7 7 8 8 9 9 9 8 8 8 7 7 7 7 5 5 5 4 5 6 6 8 8 7 7 8 8 7 10 15 16 12 9 8 7 8 9 9 8 4 2 2 5 8 10 10 10 9 7 7 6 6 6 6 5 4 4 3 3 5 5 6 7 8 8 7 6 5 5 5 4 5 5 5 nan
nan 3 5 7 7 7 7 7 7 7 7 7 6 6 7 9 11 12 12 10 10 10 11 13 16 18 17 13 10 10 15 15 15 14 13 11 10 9 7 6 6 6 6 3 5 5 5 5 5 7 8 7 7 7 8 9 11 15 14 9 6 4 3 4 4 4 4 2 0 -0 2 7 9 9 9 8 8 8 7 6 6 5 5 4 4 4 3 4 4 5 7 8 8 7 6 6 6 6 5 5 5 5 nan
nan 3 5 6 7 7 7 7 7 7 7 6 6 6 7 9 10 11 10 10 9 8 8 10 15 21 23 20 17 18 21 20 21 21 20 17 14 12 10 9 6 4 5 4 5 7 7 6 6 7 9 8 7 8 7 9 11 12 10 7 3 1 1 3 3 3 3 2 0 -1 1 6 8 7 7 8 8 9 8 7 6 5 5 5 5 5 4 4 4 4 6 7 8 8 6 6 6 7 6 5 5 5 nan
nan 3 5 5 6 6 6 7 7 7 7 6 6 7 8 9 10 9 9 9 9 9 7 8 13 22 29 28 28 26 18 16 18 20 24 24 22 20 18 15 11 6 3 4 5 6 6 6 6 7 9 9 7 8 8 10 12 10 6 4 1 1 3 5 6 6 5 4 3 1 1 5 8 8 7 7 7 8 9 9 8 7 6 5 5 6 6 5 5 5 5 6 7 8 7 6 6 7 7 6 5 5 nan
nan 5 4 4 5 6 7 7 7 7 7 6 7 8 9 9 9 8 7 8 10 9 8 9 14 25 32 34 33 25 12 11 13 15 18 21 22 24 26 24 18 11 5 4 4 4 5 6 6 7 8 9 8 8 10 12 14 12 7 4 3 5 7 8 8 8 6 6 5 3 2 5 8 9 8 7 7 6 8 9 10 10 8 6 6 6 6 6 6 5 5 5 6 7 7 7 6 7 7 6 5 5 nan
nan 5 3 4 5 7 9 10 10 9 7 7 11 12 11 11 10 7 7 10 10 9 9 13 21 29 31 33 25 15 8 7 9 10 9 9 11 15 22 24 20 14 9 7 6 6 7 8 8 8 8 9 9 9 10 14 17 17 13 8 8 9 10 9 8 7 5 6 5 4 3 5 8 9 8 7 6 5 6 8 9 10 10 8 6 6 6 6 6 6 5 5 5 7 7 7 7 6 6 6 5 5 nan
nan 6 4 4 5 9 12 13 12 10 5 6 17 19 13 9 8 6 10 14 10 8 11 20 27 26 24 20 15 10 8 7 7 7 7 7 8 10 12 14 15 12 10 9 8 7 8 9 10 10 9 9 10 10 10 15 23 26 20 12 12 12 10 8 7 5 5 5 5 6 6 5 7 8 8 7 6 6 5 6 8 9 10 9 7 6 5 6 6 7 6 6 5 6 7 8 8 7 6 6 5 5 nan
nan 7 7 6 7 9 11 11 10 9 1 5 20 20 12 7 6 5 12 14 7 6 13 21 21 17 13 10 12 15 14 9 8 8 7 10 12 12 11 8 9 8 8 9 7 7 8 9 9 9 9 8 8 9 11 19 25 31 24 14 13 11 9 7 6 5 4 4 5 7 7 6 6 6 7 7 6 6 6 6 7 7 8 9 8 7 6 6 6 7 6 6 6 6 7 8 8 8 7 6 5 5 nan
nan 7 6 6 7 8 9 9 8 7 1 6 18 14 9 7 6 6 10 9 5 4 11 15 13 10 7 6 8 13 12 8 8 9 10 10 11 11 10 7 6 5 7 7 6 7 9 9 9 8 7 6 7 6 9 18 22 28 24 16 13 11 9 7 6 5 5 5 6 7 8 8 7 6 6 6 6 7 7 6 6 6 7 8 8 8 7 6 6 7 7 6 6 5 6 8 8 8 7 6 5 5 nan
nan 6 6 6 7 8 8 8 8 8 4 7 13 10 7 6 5 7 8 7 5 4 7 10 11 9 4 2 4 6 4 3 6 11 12 10 8 6 5 3 4 7 10 8 7 6 7 7 8 8 7 6 6 5 9 16 18 21 18 15 12 10 8 7 6 6 6 6 6 6 7 9 8 7 7 6 6 6 7 7 6 6 6 7 7 8 8 7 7 7 7 6 5 5 6 7 8 9 8 6 5 5 nan
nan 7 7 7 7 8 8 8 8 8 7 8 9 7 6 6 7 7 7 7 6 6 7 8 8 5 2 2 4 4 3 5 6 9 11 12 10 6 -0 -1 2 10 12 9 8 7 5 6 6 7 7 7 7 7 12 16 15 13 10 10 10 9 7 6 6 6 6 6 5 6 7 8 8 7 7 6 6 6 7 6 6 6 6 6 7 8 8 8 8 8 7 5 5 4 5 6 7 9 8 6 5 5 nan
nan 7 7 8 8 8 9 8 8 8 7 8 8 6 6 7 8 7 6 7 7 7 6 4 3 3 3 5 6 6 9 10 7 7 12 17 18 14 6 2 4 8 8 9 9 9 7 8 6 5 5 8 8 8 14 16 14 9 6 7 7 7 7 6 6 5 5 5 5 5 6 6 7 7 7 7 6 5 5 5 5 5 5 6 6 7 8 8 9 9 8 6 5 4 4 5 6 8 9 7 6 5 nan
nan 6 7 8 9 9 9 8 7 7 8 8 8 7 6 6 7 7 6 7 7 6 4 4 5 8 9 9 9 10 12 10 7 7 12 18 23 22 16 9 8 7 6 8 9 9 8 8 9 7 6 7 8 9 18 18 11 7 6 5 5 6 6 6 6 6 5 5 5 5 5 6 6 7 7 7 6 6 5 5 5 5 5 5 5 6 7 8 9 10 9 8 6 5 4 5 6 7 9 9 8 6 nan
nan 7 7 9 10 9 8 8 7 8 8 8 8 7 6 5 7 7 7 7 7 6 7 8 10 11 11 10 9 11 11 9 7 5 9 17 19 19 16 12 9 6 7 8 8 8 9 8 8 8 8 7 7 8 15 17 16 15 10 5 5 5 6 6 6 6 5 5 5 5 5 5 6 7 7 7 7 6 5 5 5 5 5 5 5 5 5 6 9 10 10 9 6 6 5 5 5 6 8 9 9 8 nan
nan 8 9 8 8 8 8 8 8 8 8 8 8 7 5 5 6 7 7 7 7 8 8 8 9 8 7 7 7 8 8 7 5 5 11 13 7 5 8 13 12 9 7 7 6 7 7 8 8 8 8 7 6 7 9 16 22 21 13 7 6 6 6 7 6 6 6 5 6 6 6 6 7 7 7 8 8 7 7 6 6 6 5 5 5 5 5 6 7 8 9 9 7 6 6 6 5 5 6 8 8 8 nan
nan 9 9 8 9 9 9 8 8 8 8 8 7 6 6 6 6 7 7 8 8 7 6 7 7 6 7 8 7 8 8 8 7 6 7 8 5 3 5 10 11 10 9 9 9 9 7 7 8 9 10 9 8 6 5 10 20 24 19 9 6 6 6 7 7 7 6 6 6 6 7 7 8 7 8 8 8 8 8 8 7 6 6 6 6 6 5 5 6 7 9 9 7 7 6 6 6 6 5 6 6 7 nan
nan 9 9 9 9 9 8 8 9 9 8 7 6 6 6 6 7 7 8 8 8 7 7 8 9 9 10 9 9 9 9 9 8 5 6 8 8 8 7 6 6 9 11 12 11 9 8 7 7 8 9 9 8 8 7 8 15 24 22 11 7 5 6 6 7 7 7 6 6 6 7 7 8 8 8 8 9 9 10 9 8 7 7 7 7 7 6 6 6 6 8 8 7 7 7 7 7 6 5 5 5 6 nan
nan 9 9 9 9 9 8 8 9 8 7 6 6 6 6 6 7 8 9 8 7 7 8 8 9 9 9 9 9 9 9 8 8 6 7 10 9 9 10 9 10 12 13 12 8 7 8 8 8 7 7 6 7 8 8 8 11 20 24 17 8 4 5 6 6 7 7 7 6 6 6 7 7 8 8 8 8 9 9 10 8 8 7 7 7 7 7 6 6 6 7 7 7 7 7 7 7 7 6 5 5 5 nan
nan 8 8 8 8 9 9 8 8 8 6 6 6 6 6 6 8 9 8 7 6 6 6 7 7 8 9 9 9 8 8 7 8 6 8 10 10 10 10 10 13 14 14 11 9 7 6 7 7 7 7 8 7 7 8 8 9 13 21 24 16 8 5 5 6 8 8 8 7 6 6 7 7 7 7 8 8 8 9 10 9 8 7 7 7 7 7 6 6 6 7 7 8 7 7 7 7 7 7 7 6 6 nan
nan 8 8 8 9 9 8 8 8 7 6 6 6 6 5 6 9 9 8 8 7 7 7 8 9 9 10 10 9 8 7 7 7 7 7 7 7 7 7 11 14 14 13 12 11 10 8 7 8 8 7 8 8 8 9 9 9 9 14 23 23 17 8 5 6 7 8 8 8 7 6 7 7 7 7 7 7 8 8 9 9 8 8 7 7 7 7 6 6 5 6 7 8 8 7 7 7 7 8 8 7 6 nan
nan 9 9 9 9 8 7 9 8 7 6 7 7 6 6 9 11 11 10 10 9 9 10 11 11 10 10 9 8 9 8 7 8 7 6 6 7 7 10 12 13 13 12 11 13 14 13 11 10 9 8 6 7 8 9 9 10 9 11 18 21 23 16 9 7 7 7 8 8 8 7 7 7 7 7 7 7 7 8 9 10 9 9 8 8 8 8 7 6 6 5 7 8 9 8 7 7 7 7 8 8 7 nan
nan 9 9 9 8 8 8 9 7 5 6 9 9 8 9 12 12 12 11 10 9 9 10 11 10 9 9 10 9 10 9 9 9 9 8 9 10 11 10 9 11 12 11 11 13 13 13 13 11 9 8 7 7 7 6 8 8 8 9 13 16 20 22 18 13 10 9 8 8 8 8 8 8 7 7 7 7 7 8 8 9 10 10 10 10 10 9 9 8 7 6 6 7 9 9 8 8 7 7 8 8 8 nan
nan 9 9 8 8 8 9 8 5 4 7 12 11 10 10 11 10 9 9 8 7 9 10 9 7 8 11 11 10 9 9 9 9 9 9 10 10 9 8 9 11 11 10 11 10 8 8 12 13 10 7 8 7 7 6 7 6 6 8 9 10 14 17 18 19 17 15 11 9 8 8 8 8 8 8 7 7 7 7 8 9 11 12 12 12 11 11 11 10 9 7 6 7 8 9 9 8 7 7 7 8 8 nan
nan 9 9 8 8 8 9 7 4 5 10 12 11 10 9 8 8 9 8 7 8 9 9 8 7 9 11 11 9 7 7 8 8 8 8 8 8 8 7 8 9 9 9 9 8 6 6 11 14 14 11 8 7 7 8 6 5 4 7 8 8 9 12 15 16 17 19 18 14 10 7 8 8 9 8 7 7 7 7 7 9 10 11 12 13 12 12 12 11 10 9 8 7 8 9 9 8 8 7 7 8 8 nan
nan 10 9 8 8 9 9 5 4 9 12 11 10 8 8 9 9 9 8 7 7 8 8 8 9 10 10 9 8 6 7 9 8 8 7 6 7 7 7 7 7 8 8 8 8 7 8 8 9 11 13 12 11 10 9 6 6 5 6 7 9 10 11 12 13 12 15 19 21 18 11 7 7 8 9 8 7 7 7 7 8 8 10 11 11 11 12 12 12 12 11 10 9 8 8 8 8 8 7 7 8 8 nan
nan 9 9 9 9 9 6 2 5 11 13 11 9 8 8 10 9 8 7 7 8 8 8 8 9 9 8 8 8 8 9 9 8 7 6 6 7 7 7 7 8 7 7 7 9 9 8 6 5 6 11 14 14 12 9 8 8 8 7 7 8 8 9 9 10 9 11 15 20 24 20 11 8 7 8 8 8 7 7 7 7 8 8 9 9 9 10 11 12 12 12 12 11 9 8 8 8 8 7 7 7 8 nan
nan 9 9 9 9 7 3 3 9 13 12 10 9 8 8 9 8 7 7 8 9 8 8 9 9 8 7 8 9 9 9 9 8 7 7 7 8 8 9 9 8 7 6 7 9 9 8 7 8 10 11 11 11 9 6 7 9 10 9 8 7 7 6 6 7 6 7 10 15 21 27 20 11 8 8 8 9 8 8 8 8 8 8 8 7 7 8 9 10 11 12 12 12 11 9 8 8 7 7 7 7 7 nan
nan 9 9 9 8 5 3 5 10 12 11 10 9 8 8 9 8 7 7 8 9 8 8 8 9 9 8 9 9 9 9 9 8 8 8 9 10 10 10 9 9 8 7 9 10 10 9 10 11 12 10 9 7 4 3 6 8 9 10 9 10 10 9 8 7 6 6 7 10 15 26 28 19 11 9 9 9 9 9 10 10 10 10 9 7 6 6 7 8 9 11 12 13 13 11 10 8 8 7 6 7 7 nan
nan 8 9 9 8 5 4 6 10 12 11 9 8 7 8 8 8 8 8 8 9 9 8 7 8 9 10 9 9 8 9 9 9 8 9 9 9 9 9 10 9 9 9 10 10 9 8 9 9 9 9 10 7 5 6 6 6 7 9 10 11 11 11 10 9 9 7 6 8 10 18 29 28 20 12 10 8 8 9 9 10 11 11 10 9 7 6 6 6 7 9 11 13 14 13 12 10 9 7 6 7 7 nan
nan 9 9 8 7 5 4 8 11 12 10 8 7 7 7 7 7 8 8 8 9 9 8 7 7 8 10 9 7 8 9 9 9 7 8 8 7 6 9 12 10 10 9 9 8 8 8 7 7 8 11 10 9 10 12 11 11 11 9 8 8 8 8 8 8 8 8 8 9 10 10 18 27 29 20 13 9 6 6 6 8 10 11 11 10 8 7 6 6 6 7 9 11 13 14 13 12 11 8 7 6 7 nan
nan 10 9 7 6 5 6 10 13 12 9 8 7 7 7 7 7 8 8 9 9 8 8 7 7 8 9 8 7 8 8 8 7 6 7 8 8 8 11 13 11 10 10 9 9 8 7 6 7 10 11 9 9 12 14 14 15 16 12 7 6 6 6 5 5 5 6 9 12 13 9 8 14 22 24 17 12 9 7 6 6 8 10 11 10 9 8 7 7 7 7 7 9 11 14 15 14 12 10 7 7 7 nan
nan 10 9 6 6 5 8 11 12 11 9 8 7 7 7 8 8 7 7 8 9 8 7 7 8 8 7 7 8 9 8 7 7 7 9 10 10 10 11 12 11 11 11 11 10 9 8 8 10 10 9 8 8 9 9 11 14 16 14 9 7 6 5 5 4 5 5 8 10 12 11 7 7 9 14 14 13 12 14 13 10 9 10 10 9 9 8 8 8 8 8 7 8 9 12 15 14 13 11 8 7 7 nan
nan 10 8 5 6 6 8 11 12 10 8 8 7 6 7 8 7 5 7 8 8 8 7 8 10 9 7 7 11 10 8 7 7 9 11 11 10 9 12 14 13 11 11 11 10 8 7 9 10 9 9 8 8 8 7 9 11 12 11 11 10 9 7 6 6 5 6 7 7 8 10 10 9 5 5 9 10 13 18 21 18 15 12 10 9 8 8 8 9 10 9 8 7 8 11 13 14 14 12 9 8 7 nan
nan 11 7 5 7 9 9 10 11 10 9 8 7 6 7 7 5 4 7 9 9 8 7 9 10 11 9 9 11 9 8 6 7 9 11 12 12 11 13 13 12 10 10 9 8 6 6 8 8 8 10 9 9 9 9 10 9 9 8 10 10 10 9 8 7 6 7 6 5 6 6 10 10 7 5 8 9 12 15 21 25 25 20 13 10 8 7 7 9 11 11 9 8 7 9 12 13 13 12 10 8 7 nan
nan 11 8 6 8 11 10 8 10 10 9 8 7 5 6 6 4 5 7 9 11 11 9 10 9 10 11 11 10 9 6 5 7 10 13 13 12 12 12 11 10 11 11 12 11 11 11 10 9 8 7 9 9 10 10 10 9 8 8 9 9 9 9 9 9 8 8 6 5 5 5 6 8 8 7 7 9 10 11 15 21 27 30 23 17 12 9 6 8 10 12 11 9 8 9 10 12 13 12 11 9 7 nan
nan 10 8 8 8 10 9 8 10 9 8 7 5 5 6 5 5 6 8 10 14 14 13 10 8 8 11 13 11 7 4 6 8 13 14 11 9 9 9 12 12 14 15 16 17 17 18 15 12 9 6 7 8 10 10 10 9 9 9 9 9 9 9 10 11 10 10 9 7 6 6 5 6 7 7 6 7 8 8 9 13 19 26 28 26 21 19 16 12 10 11 12 11 10 10 10 11 12 12 11 9 7 nan
nan 7 8 10 9 10 8 8 9 8 7 6 7 8 8 8 10 12 9 9 12 14 14 12 9 7 9 11 10 6 4 7 10 15 12 5 5 6 9 11 12 15 17 16 17 18 20 19 18 16 11 8 7 8 8 9 9 9 8 9 9 9 9 10 11 12 12 12 11 10 8 6 5 6 7 6 5 5 5 5 7 11 15 20 23 23 21 22 21 17 12 11 10 11 12 12 12 12 13 12 10 8 nan
nan 7 9 11 10 10 8 8 8 7 9 11 10 12 11 10 12 12 9 8 9 11 13 12 9 8 7 9 10 5 5 9 9 11 8 4 6 9 13 13 14 12 10 11 15 17 19 20 22 24 22 15 12 9 8 7 9 9 8 8 8 8 8 8 9 10 12 13 13 13 11 9 8 7 7 6 4 4 4 4 4 5 8 13 16 17 17 17 18 19 17 13 10 8 11 13 13 13 14 14 12 11 nan
nan 7 10 12 10 10 9 7 7 8 11 11 10 11 9 8 9 8 8 9 8 8 8 8 9 8 7 8 8 5 6 9 10 11 10 8 10 13 16 15 11 7 5 10 13 16 17 16 13 13 16 18 18 17 15 13 12 11 11 11 11 11 10 8 8 8 9 10 11 12 11 11 11 11 10 8 6 5 4 4 4 4 4 8 12 14 15 17 18 17 16 14 11 9 9 11 12 13 15 16 15 13 nan
nan 6 10 13 11 10 8 6 7 8 11 11 10 9 7 6 8 8 8 9 8 7 6 6 9 10 10 8 8 6 7 8 11 12 9 8 9 11 12 11 8 6 8 12 12 14 10 3 0 2 5 8 12 17 19 19 18 16 14 12 11 11 11 11 10 9 8 9 8 10 10 10 11 13 13 11 9 8 6 5 5 4 4 4 6 9 13 18 21 18 16 17 15 11 9 9 10 11 13 15 16 15 nan
nan 8 10 10 10 9 7 6 10 10 10 11 11 9 7 9 10 7 6 7 7 7 8 8 9 11 11 8 8 7 6 8 11 11 9 8 7 7 8 7 8 12 14 13 11 7 -3 -7 3 11 11 7 9 11 10 10 13 14 13 10 7 7 8 10 11 10 10 9 8 10 11 10 12 14 14 12 11 11 9 7 6 6 5 4 4 5 9 14 17 16 16 20 20 16 12 10 9 9 10 13 15 15 nan
nan 9 8 6 7 9 10 9 9 9 11 11 10 9 9 10 8 6 6 7 7 8 10 10 8 10 10 8 7 7 8 9 8 9 10 8 7 9 9 7 8 9 10 10 7 3 -5 -2 13 20 14 7 8 5 3 3 5 10 14 15 13 8 5 6 8 9 10 10 8 9 11 11 11 13 13 12 12 12 11 8 7 7 7 6 5 5 6 8 11 13 14 18 22 23 18 14 11 8 8 10 13 14 nan
nan 7 6 7 7 9 11 11 9 11 12 10 9 9 9 10 9 7 6 7 8 8 9 10 9 9 9 10 8 7 8 8 7 9 10 10 11 13 11 7 4 3 2 3 4 3 0 6 16 15 7 5 7 6 7 6 9 12 17 18 17 14 10 6 5 4 6 9 8 8 9 11 11 10 11 12 12 13 11 8 7 7 8 7 7 7 7 7 8 10 12 13 17 24 24 17 13 10 8 9 11 13 nan
nan 7 6 7 7 8 11 11 10 11 9 8 10 11 10 10 10 8 4 4 6 6 8 11 11 9 10 10 10 8 6 7 9 9 10 14 14 15 13 10 7 3 1 1 1 1 4 11 14 9 5 7 11 12 11 10 11 12 13 14 15 16 14 10 6 3 1 3 5 5 6 9 10 9 9 10 10 12 12 9 8 7 7 7 7 7 8 8 9 8 10 11 13 19 22 18 14 11 10 9 10 12 nan
nan 8 7 6 6 7 10 10 10 10 8 8 12 12 10 8 9 8 4 2 3 5 10 11 10 9 10 10 10 8 7 8 9 9 13 15 13 10 10 11 9 8 6 3 2 2 5 8 8 6 6 8 9 11 11 11 9 7 6 6 9 13 17 16 14 10 6 3 3 3 4 6 8 10 9 8 9 11 13 11 9 8 7 7 8 9 9 9 9 11 12 12 12 15 18 18 16 13 12 11 11 12 nan
nan 9 8 6 6 7 8 9 10 10 9 10 12 12 9 7 7 7 5 3 1 5 10 11 11 11 11 10 10 9 10 9 9 9 12 12 8 4 5 9 11 11 10 8 7 7 5 3 2 3 5 6 6 7 7 9 7 7 4 4 6 11 17 20 19 17 15 11 8 6 4 3 5 9 9 7 9 10 12 12 10 9 8 7 8 9 9 9 9 11 13 12 13 14 16 17 16 14 13 13 13 13 nan
nan nan nan nan nan nan nan nan nan nan nan nan nan nan nan nan nan nan nan nan nan nan nan nan nan nan nan nan nan nan nan nan nan nan nan nan nan nan nan nan nan nan nan nan nan nan nan nan nan nan nan nan nan nan nan nan nan nan nan nan nan nan nan nan nan nan nan nan nan nan nan nan nan nan nan nan nan nan nan nan nan nan nan nan nan nan nan nan nan nan nan nan nan nan nan nan nan nan nan nan nan nan nan
CAPE
216 278 388 564 761 761 1011 1170 1251 1251 1352 1384 1515 1515 1531 1615 1615 1629 1616 1593 1593 1474 1480 1474 1387 1387 1388 1421 1478 1478 1574 1601 1596 1596 1635 1632 1632 1668 1742 1725 1725 1580 1442 1387 1375 1375 1446 1385 885 885 752 806 868 868 900 1125 1125 1284 990 752 752 709 679 1694 2467 2467 2642 2707 2563 2563 2310 2106 2040 2040 2059 2041 2041 1933 1968 1955 1955 1929 1823 1642 1646 1646 1644 1859 2032 2032 1969 1815 1804 1804 1970 2150 2150 2190 1704 1111 1111 1324 1766
4 8 76 266 515 515 803 1020 1176 1176 1269 1303 1356 1356 1461 1480 1480 1569 1630 1698 1698 1644 1545 1565 1484 1484 1480 1434 1457 1457 1506 1518 1544 1544 1577 1618 1618 1657 1603 1545 1545 1407 1316 1263 1294 1294 1408 1270 796 796 699 693 748 748 777 903 903 1021 778 641 641 707 759 1960 2322 2322 2584 2745 2701 2701 2444 2240 2078 2078 2104 2083 2083 2023 2011 1857 1857 1834 1765 1767 1723 1723 1726 1809 1885 1885 1817 1762 1794 1794 1966 2139 2139 2129 1928 1498 1498 1500 1761
nan 0 5 34 225 225 548 847 1032 1032 1193 1258 1283 1283 1332 1378 1378 1438 1533 1709 1709 1642 1605 1593 1570 1570 1537 1525 1553 1553 1491 1456 1464 1464 1525 1603 1603 1641 1591 1455 1455 1326 1238 1226 1297 1297 1455 1320 864 864 733 727 753 753 747 869 869 862 515 477 477 654 1057 1864 2279 2279 2401 2692 2779 2779 2627 2324 2164 2164 2148 2128 2128 2115 2058 1950 1950 1792 1677 1667 1666 1666 1667 1705 1690 1690 1716 1703 1739 1739 2010 2083 2083 2066 1956 1721 1721 1712 1893
nan nan nan 6 14 14 269 613 928 928 1049 1171 1268 1268 1236 1255 1255 1314 1406 1565 1565 1609 1634 1647 1631 1631 1616 1677 1592 1592 1466 1482 1449 1449 1488 1595 1595 1673 1622 1491 1491 1407 1359 1347 1421 1421 1224 926 845 845 713 763 701 701 807 993 993 731 370 385 385 540 1217 1774 2373 2373 2337 2630 2779 2779 2607 2456 2206 2206 2192 2175 2175 2160 2104 1996 1996 1839 1641 1496 1486 1486 1526 1521 1508 1508 1491 1518 1635 1635 1809 1887 1887 1859 1701 1427 1427 1693 2018
nan nan nan nan 3 3 48 373 716 716 941 1027 1112 1112 1167 1211 1211 1272 1322 1488 1488 1601 1615 1630 1610 1610 1706 1673 1580 1580 1505 1489 1521 1521 1513 1602 1602 1668 1660 1615 1615 1614 1525 1515 1552 1552 1122 844 771 771 700 801 792 792 898 953 953 693 264 277 277 467 1226 1661 2323 2323 2343 2486 2674 2674 2646 2540 2291 2291 2186 2221 2221 2255 2197 2135 2135 1975 1775 1502 1405 1405 1474 1469 1461 1461 1406 1390 1500 1500 1616 1738 1738 1761 1697 1507 1507 1631 1948
nan nan nan nan nan nan 4 101 462 462 759 883 968 968 1052 1138 1138 1190 1278 1403 1403 1513 1571 1573 1552 1552 1652 1663 1629 1629 1561 1504 1546 1546 1593 1583 1583 1633 1632 1661 1661 1746 1700 1609 1603 1603 1206 768 674 674 660 785 888 888 783 570 570 316 226 237 237 522 1123 1591 2191 2191 2334 2402 2506 2506 2673 2626 2376 2376 2227 2218 2218 2302 2292 2231 2231 2114 1908 1668 1447 1447 1470 1500 1534 1534 1442 1427 1414 1414 1484 1641 1641 1713 1834 1681 1681 1579 1837
nan nan nan nan nan nan nan 7 182 182 526 735 820 820 870 990 990 1112 1236 1320 1320 1480 1523 1572 1542 1542 1595 1692 1747 1747 1714 1520 1531 1531 1585 1588 1588 1558 1499 1618 1618 1753 1746 1658 1571 1571 1252 749 579 579 646 768 960 960 762 381 381 180 271 218 218 604 987 1520 2070 2070 2343 2308 2378 2378 2558 2679 2512 2512 2366 2312 2312 2303 2292 2329 2329 2311 2093 1842 1608 1608 1549 1616 1606 1606 1597 1544 1450 1450 1479 1548 1548 1756 1971 1818 1818 1709 1784
nan nan nan nan nan nan nan nan 10 10 208 534 675 675 722 840 840 996 1192 1315 1315 1441 1479 1509 1505 1505 1550 1638 1729 1729 1777 1617 1622 1622 1639 1620 1620 1551 1521 1580 1580 1676 1744 1698 1576 1576 1334 700 535 535 601 749 909 909 889 559 559 282 253 180 180 505 857 1376 1956 1956 2179 2232 2331 2331 2445 2760 2673 2673 2508 2408 2408 2401 2341 2378 2378 2413 2291 2025 1735 1735 1629 1652 1721 1721 1753 1702 1608 1608 1514 1543 1543 1750 2010 1953 1953 1846 1828
nan nan nan nan nan nan nan nan 0 0 11 280 480 480 614 691 691 879 1110 1313 1313 1403 1454 1484 1442 1442 1514 1555 1678 1678 1765 1725 1685 1685 1658 1562 1562 1539 1551 1556 1556 1604 1703 1696 1579 1579 1378 758 463 463 580 727 890 890 873 915 915 306 275 222 222 332 862 1272 1760 1760 2022 2138 2195 2195 2280 2590 2761 2761 2661 2555 2555 2452 2347 2428 2428 2462 2392 2220 1958 1958 1800 1734 1800 1800 1871 1861 1725 1725 1674 1621 1621 1694 1954 1992 1992 1938 1968
nan nan nan nan nan nan nan nan nan nan 0 17 261 261 485 587 587 731 956 1310 1310 1365 1408 1448 1444 1444 1462 1552 1595 1595 1681 1721 1718 1718 1603 1580 1580 1564 1582 1625 1625 1664 1710 1736 1578 1578 1495 681 418 418 504 702 835 835 885 1053 1053 522 297 471 471 631 1008 1274 1602 1602 1948 2020 2079 2079 2135 2395 2775 2775 2763 2707 2707 2552 2493 2478 2478 2509 2441 2370 2148 2148 1936 1909 1974 1974 2045 2033 1889 1889 1796 1744 1744 1731 1853 1987 1987 2072 2108
nan nan nan nan nan nan nan nan nan nan nan 1 68 68 317 494 494 595 741 1082 1082 1249 1406 1446 1431 1431 1429 1525 1620 1620 1706 1745 1752 1752 1672 1603 1603 1585 1603 1649 1649 1727 1769 1744 1653 1653 1533 795 569 569 635 731 934 934 955 1094 1094 1043 490 665 665 994 1034 1091 1406 1406 1871 2003 2041 2041 2087 2156 2639 2639 2792 2813 2813 2650 2591 2575 2575 2555 2534 2466 2387 2387 2213 2048 2024 2024 2186 2220 2023 2023 1880 1829 1829 1816 1801 1932 1932 2067 2152
nan nan nan nan nan nan nan nan nan nan nan nan 2 2 109 277 277 419 576 898 898 1131 1330 1375 1393 1393 1412 1542 1641 1641 1652 1744 1866 1866 1789 1712 1712 1646 1700 1707 1707 1828 1874 1800 1697 1697 1494 1122 791 791 780 825 968 968 987 1138 1138 1335 932 1022 1022 1213 1111 973 1174 1174 1681 1941 2039 2039 2035 1991 2364 2364 2693 2879 2879 2791 2687 2671 2671 2647 2578 2510 2531 2531 2407 2236 2164 2164 2237 2318 2165 2165 1971 1873 1873 1860 1844 1878 1878 1964 2099
nan nan nan nan nan nan nan nan nan nan nan nan nan nan 1 44 44 234 479 724 724 1016 1211 1300 1332 1332 1384 1467 1623 1623 1744 1828 1940 1940 1905 1826 1826 1750 1759 1805 1805 1888 1894 1778 1591 1591 1235 1263 1081 1081 1005 990 873 873 921 1072 1072 1304 1175 1454 1454 1516 1386 1176 1177 1177 1507 1789 1962 1962 1994 1909 2084 2084 2499 2858 2858 2906 2778 2812 2812 2742 2623 2555 2534 2534 2413 2292 2264 2264 2242 2275 2214 2214 2063 1916 1916 1859 1889 1875 1875 1911 1999
nan nan nan nan nan nan nan nan nan nan nan nan nan nan nan nan nan 30 307 523 523 837 1096 1256 1306 1306 1388 1465 1579 1579 1658 1784 1886 1886 1975 1977 1977 1894 1897 1902 1902 1947 1872 1718 1306 1306 1207 1156 1220 1220 1140 1025 844 844 1059 1146 1146 1305 1397 1775 1775 1763 1707 1622 1478 1478 1550 1713 1844 1844 1953 1944 1994 1994 2322 2674 2674 2932 2875 2852 2852 2743 2622 2507 2441 2441 2326 2300 2273 2273 2248 2277 2263 2263 2157 2004 2004 1943 1931 1919 1919 1909 1946
nan nan nan nan nan nan nan nan nan nan nan nan nan nan nan nan nan nan 97 314 314 567 843 1064 1216 1216 1375 1464 1545 1545 1619 1700 1830 1830 1921 2003 2003 2000 1960 1962 1962 1926 1891 1321 1144 1144 1082 1029 1116 1116 1138 1058 945 945 1138 1190 1190 1423 1752 1899 1899 1932 1921 1907 1726 1726 1558 1581 1763 1763 1859 1935 2029 2029 2218 2485 2485 2786 2948 2857 2857 2694 2533 2418 2306 2306 2285 2262 2235 2235 2253 2279 2263 2263 2202 2092 2092 2029 2017 2007 2007 1952 1987
nan nan nan nan nan nan nan nan nan nan nan nan nan nan nan nan nan nan 1 84 84 224 418 713 1060 1060 1327 1525 1617 1617 1579 1702 1669 1669 1793 1913 1913 1990 1986 1944 1944 1946 1754 1085 986 986 896 844 825 825 965 986 978 978 1037 1093 1093 1587 2048 1906 1906 1936 2010 1955 1724 1724 1541 1484 1586 1586 1819 1980 2067 2067 2164 2303 2303 2596 2864 2884 2884 2652 2492 2333 2264 2264 2244 2224 2244 2244 2261 2328 2307 2307 2245 2225 2225 2207 2104 2049 2049 2037 2027
nan nan nan nan nan nan nan nan nan nan nan nan nan nan nan nan nan nan nan nan nan 12 84 258 708 708 1236 1497 1597 1597 1347 1395 1555 1555 1635 1784 1784 1896 1892 1890 1890 1658 1286 929 766 766 653 607 539 539 604 818 975 975 1035 1060 1060 1789 2227 1997 1997 1900 1891 1877 1692 1692 1431 1273 1340 1340 1643 1933 1990 1990 2104 2249 2249 2472 2616 2884 2884 2698 2499 2385 2314 2314 2292 2275 2298 2298 2314 2379 2357 2357 2288 2267 2267 2250 2237 2088 2088 2075 2108
nan nan nan nan nan nan nan nan nan nan nan nan nan nan nan nan nan nan nan nan nan nan nan 17 327 327 1151 1607 1626 1626 1230 958 1071 1071 1324 1691 1691 1725 1803 1843 1843 1575 1130 780 561 561 456 393 294 294 284 529 738 738 1036 1095 1095 2037 2318 2000 2000 1906 1856 1841 1700 1700 1439 1128 1176 1176 1558 1888 1948 1948 2058 2287 2287 2420 2549 2833 2833 2767 2596 2435 2365 2365 2343 2326 2304 2304 2323 2386 2361 2361 2335 2265 2265 2292 2280 2128 2128 2068 2144
nan nan nan nan nan nan nan nan nan nan nan nan nan nan nan nan nan nan nan nan nan nan nan nan 49 49 1036 1756 1694 1694 1220 1163 956 956 791 1238 1238 1378 1491 1685 1685 1527 1190 806 514 514 408 300 169 169 141 266 382 382 864 1132 1132 2081 2316 1964 1964 1828 1935 1928 1835 1835 1594 1274 1191 1191 1505 1929 1918 1918 2135 2290 2290 2416 2543 2742 2742 2829 2695 2576 2461 2461 2440 2377 2354 2354 2330 2393 2412 2412 2384 2310 2310 2290 2278 2170 2170 2061 2094
nan nan nan nan nan nan nan nan nan nan nan nan nan nan nan nan nan nan nan nan nan nan nan nan nan nan 51 69 268 268 363 513 581 581 571 514 514 465 877 1344 1344 1343 1162 920 749 749 652 385 168 168 93 99 171 171 170 435 435 1765 2447 2170 2170 2030 2086 2183 2100 2100 1894 1609 1414 1414 1449 1917 1960 1960 2127 2252 2252 2366 2392 2511 2511 2722 2840 2861 2794 2794 2681 2565 2449 2449 2423 2396 2415 2415 2437 2362 2362 2288 2314 2254 2254 2143 2083
nan nan nan nan nan nan nan nan nan nan nan nan nan nan nan nan nan nan nan nan nan nan nan nan nan nan nan nan 298 298 219 150 168 168 244 243 243 237 649 1385 1385 1341 1122 976 838 838 478 163 153 153 187 157 123 123 114 611 611 1567 2333 2268 2268 2208 2167 2227 2156 2156 1991 1778 1617 1617 1570 1915 2064 2064 2080 2201 2201 2366 2438 2462 2462 2579 2745 2865 2891 2891 2822 2657 2585 2585 2511 2439 2413 2413 2481 2455 2455 2379 2355 2338 2338 2229 2123
nan nan nan nan nan nan nan nan nan nan nan nan nan nan nan nan nan nan nan nan nan nan nan nan nan nan nan nan 5 5 339 381 335 335 263 396 396 616 947 1376 1376 1316 1235 1088 896 896 302 59 81 81 182 254 235 235 251 1470 1470 1824 2119 2071 2071 2097 2225 2220 2251 2251 2172 2031 1897 1897 1879 1986 2088 2088 2121 2197 2197 2412 2485 2507 2507 2532 2653 2775 2895 2895 2871 2797 2675 2675 2553 2481 2409 2409 2522 2545 2545 2472 2351 2375 2375 2267 2161
nan nan nan nan nan nan nan nan nan nan nan nan nan nan nan nan nan nan nan nan nan nan nan nan nan nan nan nan nan nan 1 10 122 122 233 70 70 391 823 1270 1270 1518 1098 920 770 770 303 141 150 150 122 94 80 80 140 1299 1299 1997 2050 2003 2003 2138 2275 2342 2330 2330 2306 2167 2115 2115 2091 2069 2158 2158 2163 2328 2328 2502 2577 2598 2598 2576 2608 2684 2802 2802 2920 2844 2766 2766 2597 2476 2405 2405 2471 2585 2585 2562 2395 2369 2369 2350 2242
nan nan nan nan nan nan nan nan nan nan nan nan nan nan nan nan nan nan nan nan nan nan nan nan nan nan nan nan nan nan nan nan nan nan 9 163 163 147 206 183 183 224 822 634 451 451 238 149 173 173 103 49 11 11 55 890 890 1976 2073 2101 2101 2255 2372 2377 2406 2406 2344 2301 2163 2163 2133 2140 2204 2204 2290 2413 2413 2642 2672 2642 2642 2620 2605 2636 2754 2754 2871 2938 2858 2858 2638 2425 2399 2399 2419 2532 2532 2603 2486 2411 2411 2388 2278
nan nan nan nan nan nan nan nan nan nan nan nan nan nan nan nan nan nan nan nan nan nan nan nan nan nan nan nan nan nan nan nan nan nan nan 83 83 242 213 36 36 nan 271 200 406 406 464 298 232 232 145 79 31 31 104 432 432 1752 1923 2067 2067 2213 2317 2332 2311 2311 2294 2213 2168 2168 2137 2174 2228 2228 2275 2404 2404 2522 2636 2646 2646 2663 2646 2628 2702 2702 2867 3028 2947 2947 2725 2463 2301 2301 2322 2433 2433 2549 2573 2454 2454 2382 2362
nan nan nan nan nan nan nan nan nan nan nan nan nan nan nan nan nan nan nan nan nan nan nan nan nan nan nan nan nan nan nan nan nan nan nan 0 0 235 269 163 163 nan nan 52 180 180 195 514 373 373 185 145 67 67 63 307 307 1385 1616 1822 1822 2038 2176 2192 2129 2129 2155 2124 2129 2129 2139 2207 2209 2209 2258 2351 2351 2437 2471 2600 2600 2661 2638 2618 2693 2693 2859 3020 3082 3082 2857 2499 2291 2291 2268 2334 2334 2493 2565 2540 2540 2468 2401
nan nan nan nan nan nan nan nan nan nan nan nan nan nan nan nan nan nan nan nan nan nan nan nan nan nan nan nan nan nan nan nan nan nan nan nan nan 60 178 172 172 0 nan nan nan nan nan nan 42 42 15 38 51 51 7 553 553 1005 1397 1590 1590 1792 2002 2013 1947 1947 2012 2032 2042 2042 2093 2157 2194 2194 2238 2332 2332 2412 2431 2541 2541 2613 2680 2655 2683 2683 2803 2963 3120 3120 2989 2580 2369 2369 2255 2278 2278 2390 2555 2531 2531 2461 2393
nan nan nan nan nan nan nan nan nan nan nan nan nan nan nan nan nan nan nan nan nan nan nan nan nan nan nan nan nan nan nan nan nan nan nan nan nan nan 84 141 141 39 nan nan nan nan nan nan nan nan nan nan nan nan nan 136 136 784 1160 1340 1340 1571 1769 1896 1821 1821 1879 1857 1912 1912 1918 1976 2046 2046 2174 2265 2265 2353 2434 2477 2477 2563 2678 2742 2720 2720 2791 2903 3012 3012 3027 2709 2447 2447 2286 2263 2263 2331 2449 2521 2521 2499 2432
nan nan nan nan nan nan nan nan nan nan nan nan nan nan nan nan nan nan nan nan nan nan nan nan nan nan nan nan nan nan nan nan nan nan nan nan nan nan nan 39 39 3 nan nan nan nan nan nan nan nan nan nan nan nan nan 32 32 645 1007 1260 1260 1445 1636 1795 1714 1714 1762 1776 1788 1788 1834 1843 1905 1905 2022 2147 2147 2281 2370 2414 2414 2508 2628 2736 2758 2758 2779 2842 2995 2995 3014 2793 2528 2528 2362 2292 2292 2316 2389 2416 2416 2490 2471
nan nan nan nan nan nan nan nan nan nan nan nan nan nan nan nan nan nan nan nan nan nan nan nan nan nan nan nan nan nan nan nan nan nan nan nan nan nan nan nan nan 10 3 nan nan nan nan nan nan nan nan nan nan nan nan nan nan 293 882 1126 1126 1273 1466 1700 1699 1699 1696 1701 1751 1751 1716 1678 1771 1771 1879 2031 2031 2110 2307 2354 2354 2451 2577 2684 2750 2750 2770 2783 2885 2885 2949 2873 2655 2655 2486 2367 2367 2345 2327 2356 2356 2432 2461
nan nan nan nan nan nan nan nan nan nan nan nan nan nan nan nan nan nan nan nan nan nan nan nan nan nan nan nan nan nan nan nan nan nan nan nan nan nan nan nan nan nan 33 8 nan nan nan nan nan nan nan nan nan nan nan nan nan 31 858 959 959 1102 1329 1559 1677 1677 1632 1667 1714 1714 1680 1643 1647 1647 1743 1849 1849 2007 2168 2338 2338 2393 2520 2628 2741 2741 2761 2773 2872 2872 2930 2857 2688 2688 2565 2490 2490 2375 2356 2339 2339 2371 2449
nan nan nan nan nan nan nan nan nan nan nan nan nan nan nan nan nan nan nan nan nan nan nan nan nan nan nan nan nan nan nan nan nan nan nan nan nan nan nan nan nan nan 11 34 4 4 nan nan nan nan nan nan 4 4 19 30 30 nan 670 895 895 966 1120 1345 1534 1534 1603 1634 1675 1675 1683 1648 1571 1571 1618 1756 1756 1907 2106 2199 2199 2376 2454 2567 2682 2682 2751 2810 2815 2815 2869 2886 2812 2812 2644 2523 2523 2451 2384 2321 2321 2354 2433
nan nan nan nan nan nan nan nan nan nan nan nan nan nan nan nan nan nan nan nan nan nan nan nan nan nan nan nan nan nan nan nan nan nan nan nan nan nan nan nan nan nan nan 29 14 14 2 nan nan nan nan nan nan nan 54 144 144 nan 130 670 670 862 941 1126 1384 1384 1531 1558 1634 1634 1641 1648 1534 1534 1581 1671 1671 1811 2012 2096 2096 2255 2397 2502 2615 2615 2735 2754 2760 2760 2766 2825 2844 2844 2724 2604 2604 2484 2415 2350 2350 2335 2369
nan nan nan nan nan nan nan nan nan nan nan nan nan nan nan nan nan nan nan nan nan nan nan nan nan nan nan nan nan nan nan nan nan nan nan nan nan nan nan nan nan nan nan 10 22 22 10 1 nan nan nan nan nan nan 37 263 263 299 6 324 324 588 841 949 1162 1162 1415 1480 1554 1554 1597 1643 1573 1573 1582 1590 1590 1681 1825 1991 1991 2081 2272 2356 2498 2498 2667 2644 2659 2659 2666 2765 2829 2829 2804 2684 2684 2520 2403 2336 2336 2319 2350
nan nan nan nan nan nan nan nan nan nan nan nan nan nan nan nan nan nan nan nan nan nan nan nan nan nan nan nan nan nan nan nan nan nan nan nan nan nan nan nan nan nan nan nan 31 31 41 8 0 0 nan nan nan nan nan 139 139 425 235 166 166 286 696 827 960 960 1164 1333 1440 1440 1557 1561 1571 1571 1582 1551 1551 1598 1732 1971 1971 2065 2198 2311 2365 2365 2555 2526 2512 2512 2497 2663 2814 2814 2789 2672 2672 2554 2437 2370 2370 2305 2334
nan nan nan nan nan nan nan nan nan nan nan nan nan nan nan nan nan nan nan nan nan nan nan nan nan nan nan nan nan nan nan nan nan nan nan nan nan nan nan nan nan nan nan nan 12 12 32 14 5 5 0 nan nan nan nan nan nan 72 212 221 221 158 327 783 846 846 971 1097 1300 1300 1485 1526 1533 1533 1542 1511 1511 1558 1645 1916 1916 2021 2162 2225 2299 2299 2483 2527 2500 2500 2418 2601 2750 2750 2771 2750 2750 2586 2468 2356 2356 2337 2364
nan nan nan nan nan nan nan nan nan nan nan nan nan nan nan nan nan nan nan nan nan nan nan nan nan nan nan nan nan nan nan nan nan nan nan nan nan nan nan nan nan nan nan nan 0 0 13 35 13 13 0 nan nan nan nan nan nan nan 7 177 177 169 227 476 709 709 733 913 1066 1066 1342 1456 1460 1460 1507 1554 1554 1600 1645 1778 1778 1926 2044 2111 2233 2233 2367 2461 2461 2461 2487 2607 2728 2728 2794 2732 2732 2664 2499 2384 2384 2366 2393
nan nan nan nan nan nan nan nan nan nan nan nan nan nan nan nan nan nan nan nan nan nan nan nan nan nan nan nan nan nan nan nan nan nan nan nan nan nan nan nan nan nan nan nan nan nan nan 10 22 22 3 nan nan nan nan nan nan nan nan 0 0 54 285 463 435 435 404 648 914 914 1106 1242 1354 1354 1436 1520 1520 1605 1648 1692 1692 1788 1941 2017 2092 2092 2258 2355 2444 2444 2497 2537 2753 2753 2771 2802 2802 2692 2529 2366 2366 2346 2421
nan nan nan nan nan nan nan nan nan nan nan nan nan nan nan nan nan nan nan nan nan nan nan nan nan nan nan nan nan nan nan nan nan nan nan nan nan nan nan nan nan nan nan nan nan nan nan nan 7 7 9 3 nan nan nan nan nan nan nan nan nan nan 65 527 474 474 445 351 502 502 921 1049 1219 1219 1370 1491 1491 1614 1656 1656 1656 1659 1759 1830 1895 1895 2070 2223 2334 2334 2439 2539 2616 2616 2815 2779 2779 2673 2512 2394 2394 2327 2401
nan nan nan nan nan nan nan nan nan nan nan nan nan nan nan nan nan nan nan nan nan nan nan nan nan nan nan nan nan nan nan nan nan nan nan nan nan nan nan nan nan nan nan nan nan nan nan nan nan nan 6 13 3 3 nan nan nan nan nan nan nan nan nan 20 321 321 505 475 325 325 778 902 1062 1062 1234 1426 1426 1546 1586 1583 1583 1581 1586 1647 1719 1719 1873 2019 2124 2124 2336 2492 2537 2537 2696 2763 2763 2655 2540 2425 2425 2356 2383
nan nan nan nan nan nan nan nan nan nan nan nan nan nan nan nan nan nan nan nan nan nan nan nan nan nan nan nan nan nan nan nan nan nan nan nan nan nan nan nan nan nan nan nan nan nan nan nan nan nan nan 11 7 7 3 nan nan nan nan nan nan nan nan nan 1 1 247 518 394 394 331 791 882 882 1074 1325 1325 1480 1518 1554 1554 1509 1465 1514 1578 1578 1688 1784 1993 1993 2189 2382 2496 2496 2618 2689 2689 2729 2660 2503 2503 2388 2412
nan nan nan nan 0 0 nan nan nan nan nan nan nan nan nan nan nan nan nan nan nan nan nan nan nan nan nan nan nan nan nan nan nan nan nan nan nan nan nan nan nan nan nan nan nan nan nan nan nan nan nan 2 12 12 11 1 1 nan nan nan nan nan nan nan nan nan nan 174 414 414 349 622 708 708 925 1195 1195 1379 1415 1448 1448 1401 1392 1391 1444 1444 1547 1608 1795 1795 2027 2214 2385 2385 2471 2637 2637 2787 2740 2535 2535 2468 2399
nan nan 0 0 1 1 nan nan nan nan 0 0 nan nan nan nan nan nan nan nan nan nan nan nan nan nan nan nan nan nan nan nan nan nan nan nan nan nan nan nan nan nan nan nan nan nan nan nan nan nan nan nan 3 3 12 38 38 9 nan nan nan nan nan nan nan nan nan nan 17 17 452 378 555 555 641 797 797 922 947 938 938 1028 1190 1367 1444 1444 1451 1503 1598 1598 1738 1922 2155 2155 2338 2511 2511 2599 2691 2663 2663 2537 2425
1 nan nan 0 nan nan nan nan nan nan 0 1 nan nan nan nan nan nan nan nan nan 1 0 0 nan nan nan nan nan nan nan nan nan nan nan nan nan nan nan nan nan nan nan nan nan nan nan nan nan nan nan nan nan nan 2 15 15 12 nan nan nan nan nan nan nan nan nan nan 245 245 374 426 434 434 596 657 657 717 592 610 610 778 1062 1301 1410 1410 1411 1459 1507 1507 1641 1819 2045 2045 2235 2376 2376 2562 2657 2706 2706 2567 2462
1 0 0 0 nan nan nan nan 1 1 1 1 nan nan nan nan nan nan 0 0 0 1 1 0 nan nan 0 nan 0 0 nan nan nan nan nan nan nan nan nan nan nan nan nan nan nan nan nan nan nan nan nan nan nan nan nan 5 5 5 0 nan nan nan nan nan nan nan nan 0 182 182 417 498 509 509 474 466 466 410 361 354 354 616 906 1167 1301 1301 1374 1337 1423 1423 1551 1683 1909 1909 2142 2319 2319 2479 2680 2603 2603 2508 2403
3 1 2 0 nan nan nan 0 5 5 2 1 0 0 0 0 0 0 0 1 1 1 2 2 1 1 1 1 0 0 nan nan nan nan nan nan nan nan nan nan nan nan nan nan nan nan nan nan nan nan nan nan nan nan nan nan nan 18 nan nan nan nan nan nan nan nan nan nan 63 63 455 491 668 668 547 375 375 233 184 235 235 494 767 974 1164 1164 1225 1222 1302 1302 1468 1596 1815 1815 2084 2258 2258 2434 2610 2573 2573 2477 2345
2 3 4 1 0 0 1 2 5 5 4 2 3 3 0 1 1 1 1 1 1 2 5 4 3 3 3 9 1 1 0 0 nan nan nan nan nan nan nan nan nan nan nan nan nan nan nan nan nan nan nan nan nan nan nan nan nan 1 36 2 2 nan nan nan nan nan nan nan nan nan 241 509 716 716 737 523 523 353 279 269 269 483 643 769 972 972 1091 1045 1186 1186 1344 1553 1768 1768 1989 2169 2169 2370 2497 2509 2509 2484 2381
2 6 5 3 1 1 4 4 6 6 4 5 4 4 5 4 4 3 5 5 5 4 11 20 8 8 4 2 1 1 1 1 1 1 1 0 0 nan nan nan nan nan nan nan nan nan nan nan nan nan nan nan nan nan nan nan nan nan 58 88 88 2 nan nan nan nan nan nan nan nan nan 244 544 544 639 649 649 632 569 574 574 585 545 609 765 765 935 850 972 972 1187 1507 1723 1723 1986 2118 2118 2292 2432 2567 2567 2562 2414
3 9 5 4 4 4 9 6 12 12 5 9 8 8 8 4 4 8 13 6 6 8 10 19 26 26 10 5 3 3 2 4 3 3 2 2 2 1 nan nan nan nan nan nan nan nan nan nan nan nan nan nan nan nan nan nan nan nan 13 153 153 94 0 nan nan nan nan nan nan nan nan 0 187 187 311 343 343 340 345 275 275 464 488 534 631 631 759 703 720 720 970 1343 1594 1594 1898 2122 2122 2260 2430 2529 2529 2621 2539
1 5 7 6 9 9 12 8 10 10 7 10 9 9 9 15 15 21 13 6 6 10 12 13 21 21 18 10 6 6 4 6 7 7 4 6 6 3 1 nan nan nan nan nan nan nan nan nan nan nan nan nan nan nan nan nan nan nan 11 128 128 206 71 nan nan nan nan nan nan nan nan nan 10 10 83 74 74 25 4 nan nan 12 380 452 496 496 457 654 584 584 719 1113 1348 1348 1726 2037 2037 2196 2316 2533 2533 2567 2585
1 4 6 7 10 10 14 12 12 12 9 17 8 8 14 23 23 24 7 4 4 13 18 16 17 17 21 16 13 13 9 8 12 12 9 7 7 6 6 4 4 1 nan nan nan nan nan nan nan nan nan nan nan nan nan nan nan nan 17 100 100 196 103 8 nan nan nan nan nan nan nan nan nan nan 21 3 3 nan nan nan nan nan 4 265 328 328 306 285 464 464 635 906 1117 1117 1474 1862 1862 2178 2247 2418 2418 2474 2531
0 2 3 6 10 10 15 12 12 12 21 10 8 8 9 13 13 12 10 6 6 16 17 23 22 22 16 15 14 14 9 9 15 15 15 12 12 8 9 9 9 2 nan nan nan nan nan nan nan nan nan nan nan nan nan nan nan 0 33 94 94 138 81 21 nan nan nan nan nan nan nan nan nan nan 0 nan nan nan nan nan nan nan nan 89 282 282 217 167 173 173 397 752 909 909 1122 1605 1605 2043 2181 2272 2272 2468 2536
nan 0 1 3 9 9 14 13 10 10 12 7 11 11 17 26 26 14 11 14 14 16 17 21 33 33 18 16 12 12 13 13 15 15 24 22 22 13 9 12 12 5 3 nan nan nan nan nan nan nan nan nan nan nan nan nan nan nan 19 78 78 123 100 47 7 7 0 nan nan nan nan nan nan nan 2 0 0 nan nan nan nan nan nan nan 150 150 365 130 39 39 115 299 749 749 879 1242 1242 1738 2098 2285 2285 2488 2486
nan nan nan 1 6 6 12 11 9 9 7 7 13 13 23 32 32 20 11 16 16 17 21 24 28 28 31 22 15 15 17 24 20 20 18 20 20 13 9 11 11 7 9 2 nan nan nan nan nan nan nan nan nan nan nan nan nan 3 14 67 67 71 69 53 12 12 3 nan nan nan nan nan nan nan 13 57 57 1 nan nan nan nan nan nan 17 17 248 269 14 14 36 66 173 173 531 1023 1023 1407 1874 2191 2191 2398 2367
nan nan nan 0 5 5 9 4 9 9 7 9 13 13 24 34 34 26 19 16 16 12 19 26 36 36 36 32 25 25 18 28 24 24 22 15 15 18 17 15 15 13 5 4 nan nan nan nan nan nan nan nan nan nan nan 7 7 32 56 31 31 21 48 32 36 36 6 nan nan nan nan nan nan nan 5 119 119 88 34 nan nan nan nan nan nan nan 14 46 29 29 73 58 46 46 174 956 956 1140 1574 2005 2005 2180 2305
nan nan nan nan 0 0 2 1 6 6 8 10 13 13 19 39 39 41 21 15 15 7 14 33 38 38 39 40 38 38 35 30 27 27 26 18 18 26 24 20 20 8 8 4 3 3 0 0 nan nan nan nan nan nan nan nan nan nan 40 44 44 36 58 70 72 72 40 9 nan nan nan nan nan nan 2 178 178 120 51 nan nan nan nan nan nan nan nan 9 114 114 158 154 20 20 55 645 645 1037 1373 1742 1742 2060 2264
nan nan nan nan nan nan nan 2 5 5 7 11 11 11 12 38 38 69 35 7 7 4 13 32 39 39 36 48 51 51 49 43 41 41 42 32 32 23 10 23 23 32 16 12 9 9 8 12 4 4 nan nan nan nan nan nan nan nan 20 93 93 87 68 69 86 86 101 37 9 9 1 2 nan nan nan 137 137 143 96 18 18 nan nan nan nan nan nan nan 61 61 155 164 151 151 18 265 265 1005 1298 1615 1615 1917 2193
nan nan nan nan nan nan nan 3 4 4 8 14 9 9 12 45 45 88 65 19 19 13 11 25 44 44 43 44 56 56 50 46 37 37 47 45 45 30 15 7 7 13 34 34 31 31 24 22 18 18 12 nan nan nan nan nan nan nan nan 93 93 147 97 66 41 41 71 92 53 53 10 6 1 1 nan 2 2 103 132 56 56 3 nan nan nan nan nan nan 29 29 195 129 130 130 24 575 575 975 1343 1496 1496 1785 2050
nan nan nan nan nan nan nan 0 5 5 5 16 9 9 16 50 50 90 85 36 36 15 10 20 40 40 58 45 50 50 41 43 49 49 46 46 46 46 31 18 18 13 35 33 30 30 33 27 31 31 39 2 nan nan nan nan nan nan nan nan nan 71 154 89 32 32 18 41 70 70 47 12 1 1 nan 0 0 26 122 130 130 42 1 nan nan nan nan nan nan nan 102 40 65 65 127 608 608 1090 1351 1463 1463 1660 1972
nan nan nan nan nan nan nan nan 2 2 4 14 15 15 19 42 42 68 77 44 44 47 19 14 30 30 51 42 49 49 44 45 53 53 59 52 52 45 36 35 35 33 24 16 12 12 19 27 35 35 41 13 1 1 nan nan nan nan nan nan nan nan 58 139 82 82 25 12 29 29 37 45 19 19 3 2 2 6 45 37 37 57 17 2 nan nan nan nan nan nan 8 25 70 70 307 669 669 1132 1359 1512 1512 1584 1793
nan nan nan nan nan nan nan nan 1 1 2 19 19 19 18 23 23 27 45 41 41 35 13 11 20 20 37 39 47 47 52 52 60 60 65 57 57 51 38 36 36 37 36 14 12 12 10 15 22 22 28 34 37 37 2 nan nan nan nan nan nan nan nan 91 150 150 72 27 28 28 18 27 43 43 13 6 6 1 5 nan nan 7 45 5 nan nan nan nan nan nan nan 120 45 45 166 593 593 1100 1326 1441 1441 1513 1670